Showing default

QIANFAN-42, 62243

Orbit data source: Space-Track

QIANFAN-42, 62243 is a Chinese payload satellite in LEO that was launched on Thu, 05 Dec 2024 UTC via a CHANG ZHENG 6A launch vehicle from the Taiyaun Space Center, China (TSC). Payload-class satellites include a variety of spacecraft equipped with specific instruments for various scientific and technological missions. These include communications satellites like Starlink; space stations such as the ISS; scientific satellites like the Hubble; Earth observation satellites from companies like Planet Labs, Umbra, and HawkEye 360; GPS; miniature CubeSats for education and research; and military/defense satellites.

Loading next visibility...
Identifier
62243, 2024-232G
Orbit
LEO
Last TLE update
6 hours ago
Origin
Manufacturer
SECM
Mission
Operational Commercial Communications
Bus & Motor
QIANFAN, Unknown motor
Mass
267 kg wet, ~267 kg dry
Launch date (UTC)
2024-12-05 (7 months ago)
Launch vehicle
CHANG ZHENG 6A
Launch site
Taiyaun Space Center, China (TSC)
Object type
Payload
Rocket body
Debris
Shape & HBR
Box + 1 Pan, 10 m
Radar Cross Section
13.200 m², Large (>1 m²)

Expand to show TLE details & history

TLE from 6 hours ago
0 QIANFAN-42
1 62243U 24232G   25186.74150057  .00000266  00000-0  10871-3 0  9995
2 62243  88.9946  55.6786 0012723 245.1646 114.8223 14.24323140 78597
Epoch: 2025-07-05T17:47Z
TLE epoch observation values (Epoch: 2025-07-05T17:47:45.649Z)
Latitude
-0.00009°
Longitude
-135.2368°
Altitude
817.679 km
Speed
7.442 km/s
True Right ascension
03h 42m 42s
True Declination
0° 00' 00"
Sunlit
Object was in daylight at epoch
Visualization orbit readout
Latitude
-79.41488°
Longitude
-140.62723°
Altitude
831.513 km
Speed
7.44 km/s
Apparent Right ascension
00h 45m 44s
Apparent Declination
-62° 14' 21"
Sunlit
Object is in daylight
Visualization observer readout
Local Sidereal Time
12:06:34
Azimuth
191.652° SSW
Elevation
-66.904°
Doppler factor
1
Orbital elements
Apogee altitude
816.857 km
Perigee altitude
798.572 km
Semi-major axis
7,185.851 km
Eccentricity
0.00127
Inclination
88.9946°
RAAN
55.6786°
Arg. of periapsis
245.1646°
True anomaly
Unknown
Mean anomaly
114.8223°
Eccentric anomaly
Unknown
Mean motion
3.56308 °/min
Orbital period
101.04 mins
BSTAR
0.00010871
Loading maneuver chart data...
Loading SW <> Apogee altitude chart data...
Loading historical data...
Loading historical data...
Loading historical data...
Loading historical data...
Loading historical data...
Loading historical data...
Loading historical data...

QIANFAN-42 Visibility forecast

Observer location: undefined°, undefined°

Span
Click to sort rows by Start time (UTC) header in descending order
Start Az.
Max El. time (UTC)
Max El. Az.
Max El.
End time (UTC)
End Az.
8 mins2025-07-06 02:49:05.706Z27.686° NE2025-07-06 02:53:05.706Z88.243° E27.386°2025-07-06 02:57:05.706Z142.734° SSE
7 mins2025-07-06 04:31:05.706Z325.105° NNW2025-07-06 04:34:05.706Z275.491° WNW26.211°2025-07-06 04:38:05.706Z223.329° SW
9 mins2025-07-06 15:50:05.706Z184.497° SSW2025-07-06 15:54:05.706Z267.715° W44.313°2025-07-06 15:59:05.706Z355.796° N
|